User: anonymous   Login
Location: Camp Creek
(33.9000°N, 111.8167°W)
Time: 05:11:59
(UTC-07:00)
Language:

Cosmos 1656 - Orbit

View from above orbital plane
View from above orbital plane
View from above satellite
View from above satellite

Ground track
Ground track

The orbit data is extracted from the following two-line orbital elements,

1 15755U 85042A   15149.03154588 -.00000077  00000-0 -14001-4 0  9992
2 15755 071.1088 143.6619 0034064 139.3536 221.0143 14.20360537554173
Epoch (UTC): 29 May 2015 00:45:25
Eccentricity: 0.0034064
inclination: 71.1088°
perigee height: 799 km
apogee height: 848 km
right ascension of ascending node: 143.6619°
argument of perigee: 139.3536°
revolutions per day: 14.20360537
mean anomaly at epoch: 221.0143°
orbit number at epoch: 55417

The dashed part of the orbit path shows where the satellite is in the earth's shadow,  

DLR